FW2619 Weather Reports


time (UTC)temp
C
wind
direction
speed
KPH
gust
KPH
rain 1hr
cm
rain 24hr
cm
rain mn
cm
humidity
%
barometer
mb
20260505064910 8 269 0.0 0.0 0.03 0.10 0.03 93 1009.0
20260505064408 8 269 0.0 0.0 0.00 0.08 0.00 92 1008.9
20260505061910 8 269 0.0 0.0 0.03 0.08 0.00 92 1008.9
20260505061407 8 269 0.0 0.0 0.03 0.08 0.00 92 1008.8
20260505060905 8 269 0.0 0.0 0.03 0.08 0.00 92 1008.8
20260505060408 8 269 0.0 0.0 0.03 0.08 0.00 92 1008.9
20260505054905 8 269 0.0 0.0 0.05 0.08 0.08 92 1008.9
20260505054409 8 269 0.0 0.0 0.05 0.08 0.08 92 1009.1
20260505053908 8 269 0.0 0.0 0.05 0.08 0.08 91 1008.7
20260505053406 8 269 0.0 0.0 0.03 0.05 0.05 91 1008.6
20260505051906 8 269 0.0 0.0 0.03 0.05 0.05 91 1008.7
20260505051405 8 269 0.0 0.0 0.03 0.05 0.05 91 1008.8
20260505050908 8 269 0.0 0.0 0.05 0.05 0.05 90 1009.1
20260505050407 8 269 0.0 0.0 0.05 0.05 0.05 90 1009.1
20260505041406 8 269 0.0 0.0 0.03 0.03 0.03 88 1009.3
20260505040905 8 269 0.0 0.0 0.00 0.00 0.00 88 1009.3
20260505040409 8 269 0.0 9.7 0.00 0.00 0.00 87 1009.2
20260505034909 9 298 0.0 4.8 0.00 0.00 0.00 86 1008.9
20260505033906 9 327 0.0 9.7 0.00 0.00 0.00 84 1008.8
20260505033405 10 281 0.0 9.7 0.00 0.00 0.00 82 1008.8
20260505031905 11 281 0.0 4.8 0.00 0.00 0.00 76 1008.6
20260505031408 11 279 0.0 4.8 0.00 0.00 0.00 72 1008.5
20260505030907 12 351 0.0 4.8 0.00 0.00 0.00 67 1008.3
20260505030406 12 302 1.6 14.5 0.00 0.00 0.00 65 1008.2
20260505024906 12 13 0.0 0.0 0.00 0.00 0.00 63 1007.4
20260505024409 12 13 0.0 0.0 0.00 0.00 0.00 64 1007.3
20260505023406 12 13 0.0 0.0 0.00 0.00 0.00 64 1007.1
20260505021906 12 13 0.0 0.0 0.00 0.00 0.00 63 1006.9
20260505020906 12 13 0.0 0.0 0.00 0.00 0.00 62 1006.8
20260505020405 12 13 0.0 0.0 0.00 0.00 0.00 62 1006.9
20260505014920 12 13 0.0 0.0 0.00 0.00 0.00 61 1006.8
20260505014406 12 13 0.0 0.0 0.00 0.00 0.00 61 1006.5
20260505013919 12 13 0.0 0.0 0.00 0.00 0.00 60 1006.2
20260505013405 12 13 0.0 0.0 0.00 0.00 0.00 60 1006.2
20260505011904 13 13 0.0 0.0 0.00 0.00 0.00 60 1006.5
20260505011408 13 13 0.0 0.0 0.00 0.00 0.00 60 1006.4
20260505010907 13 13 0.0 0.0 0.00 0.00 0.00 60 1006.5
20260505010405 13 13 0.0 0.0 0.00 0.00 0.00 60 1006.2
20260505004906 13 302 0.0 0.0 0.00 0.00 0.00 58 1006.6
20260505004409 13 331 0.0 11.3 0.00 0.00 0.00 56 1006.6
20260505003908 14 272 1.6 12.9 0.00 0.00 0.00 54 1006.6
20260505003407 15 279 1.6 16.1 0.00 0.00 0.00 51 1006.5
20260505001404 15 305 0.0 0.0 0.00 0.00 0.00 45 1006.0
20260505000406 15 343 0.0 0.0 0.00 0.00 0.00 45 1005.5
20260504234905 15 327 0.0 4.8 0.00 0.00 0.00 45 1004.8
20260504234406 16 307 0.0 4.8 0.00 0.00 0.00 44 1004.6
20260504233905 16 353 1.6 16.1 0.00 0.00 0.00 43 1004.6
20260504233409 16 327 3.2 16.1 0.00 0.00 0.00 42 1004.6
20260504230905 16 0 0.0 4.8 0.00 0.00 0.00 39 1004.2
20260504230404 16 348 0.0 20.9 0.00 0.00 0.00 38 1004.0
20260504224909 17 331 1.6 19.3 0.00 0.00 0.00 35 1003.7
20260504224407 17 336 9.7 22.5 0.00 0.00 0.00 35 1003.8
20260504223906 17 355 8.0 22.5 0.00 0.00 0.00 35 1003.7
20260504223404 17 346 3.2 20.9 0.00 0.00 0.00 35 1003.9
20260504221407 18 347 9.7 19.3 0.00 0.00 0.00 32 1003.7
20260504220904 18 358 8.0 24.1 0.00 0.00 0.00 30 1003.6
20260504220406 20 6 0.0 20.9 0.00 0.00 0.00 26 1003.5
20260504214404 20 10 0.0 0.0 0.00 0.00 0.00 25 1003.1
20260504213906 20 22 0.0 0.0 0.00 0.00 0.00 25 1003.1
20260504213405 20 35 0.0 0.0 0.00 0.00 0.00 25 1003.1
20260504211404 20 353 0.0 3.2 0.00 0.00 0.00 26 1003.3
20260504210907 20 0 0.0 3.2 0.00 0.00 0.00 27 1003.4
20260504210406 20 351 0.0 4.8 0.00 0.00 0.00 27 1003.5
20260504204905 21 339 0.0 8.0 0.00 0.00 0.00 27 1003.8
20260504204404 21 331 3.2 12.9 0.00 0.00 0.00 28 1003.9
20260504203907 21 331 1.6 14.5 0.00 0.00 0.00 27 1003.9
20260504203406 21 330 1.6 14.5 0.00 0.00 0.00 27 1003.9
20260504201905 21 351 1.6 9.7 0.00 0.00 0.00 26 1004.1
20260504201409 20 344 0.0 9.7 0.00 0.00 0.00 27 1004.2
20260504200907 20 345 0.0 0.0 0.00 0.00 0.00 28 1004.2
20260504200406 21 356 1.6 11.3 0.00 0.00 0.00 26 1004.3
20260504193908 21 335 1.6 22.5 0.00 0.00 0.00 27 1004.1
20260504191404 19 0 0.0 0.0 0.00 0.00 0.00 29 1004.2
20260504190903 18 1 1.6 8.0 0.00 0.00 0.00 31 1004.2
20260504190406 17 293 1.6 19.3 0.00 0.00 0.00 33 1004.2
20260504184907 17 350 4.8 22.5 0.00 0.00 0.00 37 1004.2
20260504184405 17 313 4.8 22.5 0.00 0.00 0.00 36 1004.4
20260504183903 17 297 1.6 22.5 0.00 0.00 0.00 32 1004.5
20260504183407 17 342 11.3 24.1 0.00 0.00 0.00 33 1004.6
20260504180908 20 192 0.0 3.2 0.00 0.00 0.00 23 1004.0
20260504174911 20 345 0.0 0.0 0.00 0.00 0.00 23 1003.9
20260504174409 20 345 0.0 0.0 0.00 0.00 0.00 23 1004.0
20260504173907 21 345 0.0 0.0 0.00 0.00 0.00 22 1004.0
20260504173411 21 344 0.0 0.0 0.00 0.00 0.00 22 1004.1
20260504171906 22 356 0.0 0.0 0.00 0.00 0.00 21 1004.3
20260504171408 22 1 0.0 1.6 0.00 0.00 0.00 22 1004.3
20260504170907 22 105 0.0 1.6 0.00 0.00 0.00 22 1004.4
20260504170406 22 107 0.0 0.0 0.00 0.00 0.00 23 1004.4
20260504150907 16 141 0.0 0.0 0.00 0.00 0.00 32 1005.9
20260504150405 16 140 0.0 0.0 0.00 0.00 0.00 31 1006.0
20260504140906 10 106 0.0 0.0 0.00 0.00 0.00 62 1006.1
20260504140409 9 106 0.0 0.0 0.00 0.00 0.00 63 1006.1
20260504110408 5 106 0.0 0.0 0.00 0.00 0.00 64 1006.3
20260504100405 5 106 0.0 0.0 0.00 0.00 0.00 64 1006.8
20260504081906 8 106 0.0 0.0 0.00 0.00 0.00 56 1007.3
20260504081410 8 106 0.0 0.0 0.00 0.00 0.00 55 1007.3
20260504080909 8 106 0.0 0.0 0.00 0.00 0.00 53 1007.4
20260504080408 8 106 0.0 0.0 0.00 0.00 0.00 53 1007.4
20260504070408 11 106 0.0 0.0 0.00 0.00 0.00 47 1007.6